EW2817 Weather Reports


time (UTC)temp
F
wind
direction
speed
knots
gust
knots
rain 1hr
in
rain 24hr
in
rain mn
in
humidity
%
barometer
mb
20260902232224 87 0 0.0 0.0 0.00 0.00 0.00 74 993.6
20260902230722 88 0 0.0 0.0 0.00 0.00 0.00 74 993.5
20260902225223 89 0 0.0 0.0 0.00 0.00 0.00 73 993.4
20260902223718 89 0 0.0 0.0 0.00 0.00 0.00 72 993.4
20260902222218 90 0 0.0 0.0 0.00 0.00 0.00 69 993.2
20260902220715 91 0 0.0 0.0 0.00 0.00 0.00 66 993.2
20260902215214 92 0 0.0 0.0 0.00 0.00 0.00 63 993.2
20260902214417 92 0 0.0 0.0 0.00 0.00 0.00 61 993.4
20260902212212 93 0 0.0 0.0 0.00 0.00 0.00 60 993.4
20260902210709 94 0 0.0 0.0 0.00 0.00 0.00 58 993.5
20260902205207 94 0 0.0 0.0 0.00 0.00 0.00 54 993.5
20260902203707 94 0 0.0 0.0 0.00 0.00 0.00 50 993.4
20260902202859 94 0 0.0 0.0 0.00 0.00 0.00 54 993.6
20260902200708 95 0 0.0 0.0 0.00 0.00 0.00 53 993.8
20260902195208 96 0 0.0 0.0 0.00 0.00 0.00 56 993.8
20260902194406 96 0 0.0 0.0 0.00 0.00 0.00 48 994.0
20260902192206 97 0 0.0 0.0 0.00 0.00 0.00 53 994.1
20260902190703 97 0 0.0 0.0 0.00 0.00 0.00 48 994.3
20260902185203 97 0 0.0 0.0 0.00 0.00 0.00 49 994.4
20260902183701 99 0 0.0 0.0 0.00 0.00 0.00 48 994.6
20260902182153 98 0 0.0 0.0 0.00 0.00 0.00 48 994.7
20260902180652 98 0 0.0 0.0 0.00 0.00 0.00 46 994.7
20260902175151 98 0 0.0 0.0 0.00 0.00 0.00 48 994.7
20260902173651 97 0 0.0 0.0 0.00 0.00 0.00 48 994.9
20260902172150 98 0 0.0 0.0 0.00 0.00 0.00 47 995.0
20260902170649 98 0 0.0 0.0 0.00 0.00 0.00 47 995.1
20260902165149 97 0 0.0 0.0 0.00 0.00 0.00 56 995.1
20260902163647 96 0 0.0 0.0 0.00 0.00 0.00 56 995.2
20260902162143 95 0 0.0 0.0 0.00 0.00 0.00 57 995.4
20260902160642 95 0 0.0 0.0 0.00 0.00 0.00 58 995.5
20260902155143 94 0 0.0 0.0 0.00 0.00 0.00 62 995.5
20260902154339 92 0 0.0 0.0 0.00 0.00 0.00 60 995.6
20260902152143 91 0 0.0 0.0 0.00 0.00 0.00 67 995.6
20260902150633 90 0 0.0 0.0 0.00 0.00 0.00 71 995.6
20260902145131 89 0 0.0 0.0 0.00 0.00 0.00 69 995.6
20260902143626 88 0 0.0 0.0 0.00 0.00 0.00 74 995.5
20260902142127 86 0 0.0 0.0 0.00 0.00 0.00 79 995.3
20260902140626 84 0 0.0 0.0 0.00 0.00 0.00 84 995.4
20260902135817 81 0 0.0 0.0 0.00 0.00 0.00 89 995.3
20260902133616 79 0 0.0 0.0 0.00 0.00 0.00 91 995.3
20260902132812 78 0 0.0 0.0 0.00 0.00 0.00 92 995.3
20260902131306 77 0 0.0 0.0 0.00 0.00 0.00 93 995.4
20260902125121 76 0 0.0 0.0 0.00 0.00 0.00 93 995.4
20260902123615 76 0 0.0 0.0 0.00 0.00 0.00 93 995.3
20260902122114 75 0 0.0 0.0 0.00 0.00 0.00 93 995.4
20260902121308 75 0 0.0 0.0 0.00 0.00 0.00 93 995.3
20260902115112 75 0 0.0 0.0 0.00 0.00 0.00 94 995.2
20260902113612 75 0 0.0 0.0 0.00 0.00 0.00 93 995.2
20260902112106 75 0 0.0 0.0 0.00 0.00 0.00 93 995.1
20260902110608 75 0 0.0 0.0 0.00 0.00 0.00 93 995.0
20260902103607 75 0 0.0 0.0 0.00 0.00 0.00 92 994.8
20260902102106 76 0 0.0 0.0 0.00 0.00 0.00 92 994.8
20260902100604 76 0 0.0 0.0 0.00 0.00 0.00 91 994.6
20260902095756 76 0 0.0 0.0 0.00 0.00 0.00 91 994.5
20260902093602 77 0 0.0 0.0 0.00 0.00 0.00 91 994.4
20260902092803 77 0 0.0 0.0 0.00 0.00 0.00 92 994.2
20260902090601 77 0 0.0 0.0 0.00 0.00 0.00 91 994.2
20260902085100 77 0 0.0 0.0 0.00 0.00 0.00 91 994.2
20260902083600 77 0 0.0 0.0 0.00 0.00 0.00 91 994.0
20260902082059 77 0 0.0 0.0 0.00 0.00 0.00 91 994.2
20260902080558 77 0 0.0 0.0 0.00 0.00 0.00 91 994.1
20260902075058 77 0 0.0 0.0 0.00 0.00 0.00 91 994.1
20260902073558 77 0 0.0 0.0 0.00 0.00 0.00 91 994.1
20260902072056 78 0 0.0 0.0 0.00 0.00 0.00 91 994.1
20260902070600 78 0 0.0 0.0 0.00 0.00 0.00 90 994.2
20260902065056 78 0 0.0 0.0 0.00 0.00 0.00 89 994.4
20260902064952 79 0 0.0 0.0 0.00 0.00 0.00 89 994.4
20260902062056 79 0 0.0 0.0 0.00 0.00 0.00 88 994.4
20260902060556 79 0 0.0 0.0 0.00 0.00 0.00 87 994.5
20260902055055 79 0 0.0 0.0 0.00 0.00 0.00 87 994.4
20260902054310 79 0 0.0 0.0 0.00 0.00 0.00 87 994.3
20260902052053 79 0 0.0 0.0 0.00 0.00 0.00 88 994.1
20260902050553 79 0 0.0 0.0 0.00 0.00 0.00 88 993.9
20260902045749 80 0 0.0 0.0 0.00 0.00 0.00 88 993.9
20260902043552 80 0 0.0 0.0 0.00 0.00 0.00 88 993.8
20260902042051 80 0 0.0 0.0 0.00 0.00 0.00 88 993.8
20260902041259 80 0 0.0 0.0 0.00 0.00 0.00 87 993.8
20260902035741 80 0 0.0 0.0 0.00 0.00 0.00 86 993.8
20260902034255 80 0 0.0 0.0 0.00 0.00 0.00 86 993.8
20260902032043 81 0 0.0 0.0 0.00 0.00 0.00 85 993.9
20260902030542 81 0 0.0 0.0 0.00 0.00 0.00 85 993.9
20260902025043 81 0 0.0 0.0 0.00 0.00 0.00 84 993.8
20260902023541 82 0 0.0 0.0 0.00 0.00 0.00 83 993.7
20260902022040 82 0 0.0 0.0 0.00 0.00 0.00 82 993.8
20260902020541 82 0 0.0 0.0 0.00 0.00 0.00 81 993.6
20260902015040 82 0 0.0 0.0 0.00 0.00 0.00 80 993.4
20260902013538 83 0 0.0 0.0 0.00 0.00 0.00 80 993.2
20260902012038 83 0 0.0 0.0 0.00 0.00 0.00 80 993.1
20260902010539 83 0 0.0 0.0 0.00 0.00 0.00 81 993.0
20260902005732 83 0 0.0 0.0 0.00 0.00 0.00 80 992.8
20260902003536 84 0 0.0 0.0 0.00 0.00 0.00 79 992.9
20260902002736 84 0 0.0 0.0 0.00 0.00 0.00 79 992.7
20260902000534 85 0 0.0 0.0 0.00 0.00 0.00 79 992.8
20260901235034 85 0 0.0 0.0 0.00 0.00 0.00 79 993.0
20260901233532 86 0 0.0 0.0 0.00 0.00 0.00 79 993.0